Location: Arbon
(43.0005°N, 0.7472°E)
Time: 09:28:15
(UTC+00:00)

SR - Pass Details

Date: 27 November 2020
Orbit: 575 x 880 km, 66.7° (Epoch: 27 January)

Event Time Altitude Azimuth Distance (km) Brightness Sun altitude
Rises 19:29:02 0° 237° (WSW) 2,802 ? -33.2°
Reaches altitude 10° 19:31:24 10° 247° (WSW) 1,929 ? -33.6°
Enters shadow 19:33:27 23° 269° (W) 1,312 ? -34.0°
Maximum altitude 19:35:16 31° 311° (NW) 1,088 - -34.3°
Drops below altitude 10° 19:39:23 10° 14° (NNE) 2,064 - -35.0°
Sets 19:42:01 0° 25° (NNE) 3,033 - -35.5°
